Time,TemperatureF,DewpointF,PressureIn,WindDirection,WindDirectionDegrees,WindSpeedMPH,WindSpeedGustMPH,Humidity,HourlyPrecipIn,Conditions,Clouds,dailyrainin,SoftwareType,DateUTC
2013-04-22 00:01:00,74.1,49.1,29.93,West,270,2.0,4.0,33,0.00,,,0.00,meteohub,2013-04-22 04:01:00,
2013-04-22 00:02:00,74.1,49.3,29.93,NW,315,1.0,4.0,33,0.00,,,0.00,meteohub,2013-04-22 04:02:00,
2013-04-22 00:03:00,74.1,49.3,29.93,West,270,1.0,4.0,33,0.00,,,0.00,meteohub,2013-04-22 04:03:00,
2013-04-22 00:04:00,74.1,49.3,29.93,NW,315,2.0,4.0,33,0.00,,,0.00,meteohub,2013-04-22 04:04:00,
2013-04-22 00:09:00,74.1,47.5,29.94,West,270,1.0,3.0,31,0.00,,,0.00,meteohub,2013-04-22 04:09:00,
2013-04-22 00:11:00,74.1,47.5,29.93,North,0,2.0,2.0,31,0.00,,,0.00,meteohub,2013-04-22 04:11:00,
2013-04-22 00:16:00,73.9,47.1,29.94,West,270,1.0,3.0,31,0.00,,,0.00,meteohub,2013-04-22 04:16:00,
2013-04-22 00:21:00,73.9,47.8,29.93,SW,225,1.0,3.0,32,0.00,,,0.00,meteohub,2013-04-22 04:21:00,
2013-04-22 00:26:00,73.9,47.8,29.94,West,270,2.0,3.0,32,0.00,,,0.00,meteohub,2013-04-22 04:26:00,
2013-04-22 00:31:00,73.8,48.0,29.94,North,0,4.0,4.0,32,0.00,,,0.00,meteohub,2013-04-22 04:31:00,
2013-04-22 00:36:00,73.8,48.9,29.94,SW,225,2.0,4.0,33,0.00,,,0.00,meteohub,2013-04-22 04:36:00,
2013-04-22 00:41:00,73.4,48.9,29.93,SW,225,2.0,4.0,33,0.00,,,0.00,meteohub,2013-04-22 04:41:00,
2013-04-22 00:46:00,72.9,48.9,29.94,West,270,3.0,4.0,33,0.00,,,0.00,meteohub,2013-04-22 04:46:00,
2013-04-22 00:51:00,72.7,48.9,29.93,NW,315,3.0,3.0,33,0.00,,,0.00,meteohub,2013-04-22 04:51:00,
2013-04-22 00:56:00,72.3,48.9,29.93,NW,315,2.0,4.0,33,0.00,,,0.00,meteohub,2013-04-22 04:56:00,
2013-04-22 01:02:00,72.1,48.9,29.92,West,270,3.0,4.0,33,0.00,,,0.00,meteohub,2013-04-22 05:02:00,
2013-04-22 01:07:00,72.0,49.6,29.92,NW,315,3.0,4.0,34,0.00,,,0.00,meteohub,2013-04-22 05:07:00,
2013-04-22 01:12:00,71.8,48.9,29.92,NW,315,1.0,4.0,33,0.00,,,0.00,meteohub,2013-04-22 05:12:00,
2013-04-22 01:17:00,71.8,48.9,29.92,NW,315,1.0,4.0,33,0.00,,,0.00,meteohub,2013-04-22 05:17:00,
2013-04-22 01:22:00,71.6,49.6,29.92,West,270,1.0,4.0,34,0.00,,,0.00,meteohub,2013-04-22 05:22:00,
2013-04-22 01:27:00,71.6,49.6,29.93,West,270,0.0,2.0,34,0.00,,,0.00,meteohub,2013-04-22 05:27:00,
2013-04-22 01:32:00,71.6,49.6,29.92,West,270,2.0,2.0,34,0.00,,,0.00,meteohub,2013-04-22 05:32:00,
2013-04-22 01:37:00,71.6,47.8,29.92,North,0,0.0,2.0,32,0.00,,,0.00,meteohub,2013-04-22 05:37:00,
2013-04-22 01:42:00,71.6,47.5,29.91,West,270,0.0,2.0,32,0.00,,,0.00,meteohub,2013-04-22 05:42:00,
2013-04-22 01:47:00,71.6,48.4,29.92,West,270,1.0,2.0,33,0.00,,,0.00,meteohub,2013-04-22 05:47:00,
2013-04-22 01:52:00,71.6,48.2,29.92,NW,315,1.0,2.0,33,0.00,,,0.00,meteohub,2013-04-22 05:52:00,
2013-04-22 01:57:00,71.6,48.4,29.91,North,0,2.0,2.0,33,0.00,,,0.00,meteohub,2013-04-22 05:57:00,
2013-04-22 02:02:00,71.6,48.4,29.91,West,270,0.0,2.0,33,0.00,,,0.00,meteohub,2013-04-22 06:02:00,
2013-04-22 02:07:00,71.4,49.1,29.91,West,270,1.0,2.0,34,0.00,,,0.00,meteohub,2013-04-22 06:07:00,
2013-04-22 02:12:00,71.4,49.1,29.91,West,270,0.0,2.0,34,0.00,,,0.00,meteohub,2013-04-22 06:12:00,
2013-04-22 02:17:00,71.4,49.1,29.91,West,270,0.0,1.0,34,0.00,,,0.00,meteohub,2013-04-22 06:17:00,
2013-04-22 02:23:00,71.4,49.1,29.90,NW,315,0.0,1.0,34,0.00,,,0.00,meteohub,2013-04-22 06:23:00,
2013-04-22 02:28:00,71.2,47.3,29.90,West,270,0.0,2.0,32,0.00,,,0.00,meteohub,2013-04-22 06:28:00,
2013-04-22 02:33:00,71.2,47.8,29.89,West,270,1.0,2.0,33,0.00,,,0.00,meteohub,2013-04-22 06:33:00,
2013-04-22 02:38:00,71.2,47.8,29.89,West,270,0.0,2.0,33,0.00,,,0.00,meteohub,2013-04-22 06:38:00,
2013-04-22 02:43:00,71.4,47.8,29.89,West,270,0.0,1.0,33,0.00,,,0.00,meteohub,2013-04-22 06:43:00,
2013-04-22 02:48:00,71.2,48.9,29.89,West,270,1.0,1.0,34,0.00,,,0.00,meteohub,2013-04-22 06:48:00,
2013-04-22 02:53:00,71.4,48.9,29.88,West,270,1.0,1.0,34,0.00,,,0.00,meteohub,2013-04-22 06:53:00,
2013-04-22 02:58:00,71.6,48.9,29.88,West,270,2.0,2.0,34,0.00,,,0.00,meteohub,2013-04-22 06:58:00,
2013-04-22 03:03:00,71.6,48.9,29.88,West,270,2.0,2.0,34,0.00,,,0.00,meteohub,2013-04-22 07:03:00,
2013-04-22 03:09:00,71.6,48.9,29.87,NW,315,3.0,3.0,34,0.00,,,0.00,meteohub,2013-04-22 07:09:00,
2013-04-22 03:14:00,71.8,48.9,29.87,West,270,2.0,2.0,34,0.00,,,0.00,meteohub,2013-04-22 07:14:00,
2013-04-22 03:19:00,71.8,48.9,29.87,West,270,2.0,4.0,34,0.00,,,0.00,meteohub,2013-04-22 07:19:00,
2013-04-22 03:24:00,71.8,49.6,29.87,West,270,0.0,4.0,35,0.00,,,0.00,meteohub,2013-04-22 07:24:00,
2013-04-22 03:29:00,71.8,49.6,29.87,West,270,0.0,3.0,35,0.00,,,0.00,meteohub,2013-04-22 07:29:00,
2013-04-22 03:34:00,71.8,48.9,29.87,West,270,1.0,2.0,34,0.00,,,0.00,meteohub,2013-04-22 07:34:00,
2013-04-22 03:39:00,71.8,48.0,29.87,NW,315,1.0,2.0,33,0.00,,,0.00,meteohub,2013-04-22 07:39:00,
2013-04-22 03:44:00,71.8,47.7,29.87,West,270,0.0,2.0,33,0.00,,,0.00,meteohub,2013-04-22 07:44:00,
2013-04-22 03:49:00,71.8,47.7,29.87,West,270,1.0,2.0,33,0.00,,,0.00,meteohub,2013-04-22 07:49:00,
2013-04-22 03:54:00,72.0,48.6,29.87,NW,315,2.0,2.0,34,0.00,,,0.00,meteohub,2013-04-22 07:54:00,
2013-04-22 04:00:00,72.1,48.6,29.87,NW,315,2.0,2.0,34,0.00,,,0.00,meteohub,2013-04-22 08:00:00,
2013-04-22 04:05:00,72.1,48.6,29.87,WSW,248,2.0,3.0,34,0.00,,,0.00,meteohub,2013-04-22 08:05:00,
2013-04-22 04:10:00,72.1,48.6,29.87,West,270,2.0,4.0,34,0.00,,,0.00,meteohub,2013-04-22 08:10:00,
2013-04-22 04:15:00,72.3,48.7,29.87,West,270,1.0,4.0,34,0.00,,,0.00,meteohub,2013-04-22 08:15:00,
2013-04-22 04:20:00,72.1,48.7,29.87,NW,315,0.0,4.0,34,0.00,,,0.00,meteohub,2013-04-22 08:20:00,
2013-04-22 04:25:00,72.3,48.7,29.87,NW,315,2.0,2.0,34,0.00,,,0.00,meteohub,2013-04-22 08:25:00,
2013-04-22 04:30:00,72.1,49.5,29.87,NW,315,1.0,2.0,35,0.00,,,0.00,meteohub,2013-04-22 08:30:00,
2013-04-22 04:35:00,72.1,49.5,29.87,North,0,2.0,2.0,35,0.00,,,0.00,meteohub,2013-04-22 08:35:00,
2013-04-22 04:40:00,72.1,49.5,29.86,North,0,2.0,2.0,35,0.00,,,0.00,meteohub,2013-04-22 08:40:00,
2013-04-22 04:45:00,72.1,49.5,29.86,West,270,2.0,2.0,35,0.00,,,0.00,meteohub,2013-04-22 08:45:00,
2013-04-22 04:50:00,72.1,49.5,29.87,NW,315,2.0,2.0,35,0.00,,,0.00,meteohub,2013-04-22 08:50:00,
2013-04-22 04:56:00,72.1,49.6,29.87,NW,315,2.0,4.0,35,0.00,,,0.00,meteohub,2013-04-22 08:56:00,
2013-04-22 05:01:00,72.1,49.6,29.87,West,270,1.0,4.0,35,0.00,,,0.00,meteohub,2013-04-22 09:01:00,
2013-04-22 05:06:00,72.1,49.6,29.87,NW,315,1.0,4.0,35,0.00,,,0.00,meteohub,2013-04-22 09:06:00,
2013-04-22 05:11:00,72.1,49.6,29.88,NW,315,1.0,3.0,35,0.00,,,0.00,meteohub,2013-04-22 09:11:00,
2013-04-22 05:16:00,72.1,49.6,29.87,NW,315,1.0,2.0,35,0.00,,,0.00,meteohub,2013-04-22 09:16:00,
2013-04-22 05:21:00,72.1,48.9,29.88,NW,315,2.0,2.0,34,0.00,,,0.00,meteohub,2013-04-22 09:21:00,
2013-04-22 05:26:00,72.0,47.7,29.88,South,180,1.0,2.0,33,0.00,,,0.00,meteohub,2013-04-22 09:26:00,
2013-04-22 05:31:00,72.1,48.4,29.88,West,270,1.0,2.0,34,0.00,,,0.00,meteohub,2013-04-22 09:31:00,
2013-04-22 05:36:00,72.1,48.6,29.88,NW,315,3.0,3.0,34,0.00,,,0.00,meteohub,2013-04-22 09:36:00,
2013-04-22 05:41:00,72.1,48.6,29.88,West,270,2.0,3.0,34,0.00,,,0.00,meteohub,2013-04-22 09:41:00,
2013-04-22 05:47:00,72.1,49.3,29.88,NW,315,2.0,3.0,35,0.00,,,0.00,meteohub,2013-04-22 09:47:00,
2013-04-22 05:52:00,72.1,49.3,29.88,NW,315,2.0,4.0,35,0.00,,,0.00,meteohub,2013-04-22 09:52:00,
2013-04-22 05:57:00,72.1,49.3,29.88,North,0,4.0,4.0,35,0.00,,,0.00,meteohub,2013-04-22 09:57:00,
2013-04-22 06:02:00,72.1,49.3,29.88,WNW,293,2.0,4.0,35,0.00,,,0.00,meteohub,2013-04-22 10:02:00,
2013-04-22 06:07:00,72.3,49.5,29.88,West,270,1.0,4.0,35,0.00,,,0.00,meteohub,2013-04-22 10:07:00,
2013-04-22 06:12:00,72.5,49.5,29.88,North,0,2.0,4.0,35,0.00,,,0.00,meteohub,2013-04-22 10:12:00,
2013-04-22 06:17:00,72.5,49.5,29.88,North,0,1.0,2.0,35,0.00,,,0.00,meteohub,2013-04-22 10:17:00,
2013-04-22 06:22:00,72.5,49.5,29.88,NW,315,2.0,2.0,35,0.00,,,0.00,meteohub,2013-04-22 10:22:00,
2013-04-22 06:27:00,72.7,49.5,29.88,North,0,2.0,2.0,35,0.00,,,0.00,meteohub,2013-04-22 10:27:00,
2013-04-22 06:32:00,72.7,50.2,29.88,NW,315,2.0,4.0,36,0.00,,,0.00,meteohub,2013-04-22 10:32:00,
2013-04-22 06:37:00,72.5,49.5,29.88,North,0,3.0,4.0,35,0.00,,,0.00,meteohub,2013-04-22 10:37:00,
2013-04-22 06:42:00,72.7,49.5,29.88,North,0,1.0,4.0,35,0.00,,,0.00,meteohub,2013-04-22 10:42:00,
2013-04-22 06:47:00,72.5,49.6,29.88,NW,315,2.0,4.0,35,0.00,,,0.00,meteohub,2013-04-22 10:47:00,
2013-04-22 06:52:00,72.5,49.6,29.87,NW,315,1.0,4.0,35,0.00,,,0.00,meteohub,2013-04-22 10:52:00,
2013-04-22 06:57:00,72.5,50.4,29.87,NE,45,2.0,2.0,36,0.00,,,0.00,meteohub,2013-04-22 10:57:00,
2013-04-22 07:02:00,72.3,50.4,29.88,North,0,1.0,2.0,36,0.00,,,0.00,meteohub,2013-04-22 11:02:00,
2013-04-22 07:07:00,72.5,50.4,29.88,NE,45,2.0,4.0,36,0.00,,,0.00,meteohub,2013-04-22 11:07:00,
2013-04-22 07:12:00,72.5,50.4,29.89,East,90,2.0,4.0,36,0.00,,,0.00,meteohub,2013-04-22 11:12:00,
2013-04-22 07:17:00,72.7,50.4,29.89,NE,45,2.0,4.0,36,0.00,,,0.00,meteohub,2013-04-22 11:17:00,
2013-04-22 07:22:00,72.7,49.6,29.89,NE,45,1.0,4.0,35,0.00,,,0.00,meteohub,2013-04-22 11:22:00,
2013-04-22 07:27:00,72.9,48.6,29.90,East,90,8.0,8.0,34,0.00,,,0.00,meteohub,2013-04-22 11:27:00,
2013-04-22 07:32:00,72.1,48.4,29.89,NE,45,9.0,14.0,34,0.00,,,0.00,meteohub,2013-04-22 11:32:00,
2013-04-22 07:37:00,71.6,49.1,29.89,SE,135,11.0,14.0,35,0.00,,,0.00,meteohub,2013-04-22 11:37:00,
2013-04-22 07:42:00,71.2,49.1,29.90,SE,135,3.0,14.0,35,0.02,,,0.02,meteohub,2013-04-22 11:42:00,
2013-04-22 07:47:00,71.2,49.1,29.89,East,90,4.0,11.0,35,0.02,,,0.02,meteohub,2013-04-22 11:47:00,
2013-04-22 07:52:00,71.4,49.1,29.89,East,90,6.0,11.0,35,0.02,,,0.02,meteohub,2013-04-22 11:52:00,
2013-04-22 07:57:00,71.6,49.1,29.90,East,90,6.0,7.0,35,0.02,,,0.02,meteohub,2013-04-22 11:57:00,
2013-04-22 08:02:00,72.0,50.0,29.91,NE,45,7.0,9.0,36,0.02,,,0.02,meteohub,2013-04-22 12:02:00,
2013-04-22 08:07:00,72.0,50.0,29.91,SE,135,4.0,9.0,36,0.02,,,0.02,meteohub,2013-04-22 12:07:00,
2013-04-22 08:12:00,72.0,50.0,29.91,East,90,4.0,10.0,36,0.02,,,0.02,meteohub,2013-04-22 12:12:00,
2013-04-22 08:17:00,72.1,50.0,29.91,East,90,9.0,10.0,36,0.02,,,0.02,meteohub,2013-04-22 12:17:00,
2013-04-22 08:22:00,72.1,50.0,29.91,East,90,8.0,10.0,36,0.02,,,0.02,meteohub,2013-04-22 12:22:00,
2013-04-22 08:27:00,72.1,50.0,29.91,SE,135,5.0,10.0,36,0.02,,,0.02,meteohub,2013-04-22 12:27:00,
2013-04-22 08:32:00,72.3,50.0,29.90,SE,135,7.0,10.0,36,0.02,,,0.02,meteohub,2013-04-22 12:32:00,
2013-04-22 08:37:00,72.7,50.2,29.91,SE,135,6.0,8.0,36,0.01,,,0.02,meteohub,2013-04-22 12:37:00,
2013-04-22 08:42:00,72.9,50.2,29.91,East,90,5.0,8.0,36,0.00,,,0.02,meteohub,2013-04-22 12:42:00,
2013-04-22 08:47:00,73.0,50.2,29.91,SE,135,4.0,9.0,36,0.00,,,0.02,meteohub,2013-04-22 12:47:00,
2013-04-22 08:52:00,73.2,50.2,29.91,East,90,8.0,9.0,36,0.00,,,0.02,meteohub,2013-04-22 12:52:00,
2013-04-22 08:57:00,73.0,48.6,29.91,SE,135,11.0,11.0,34,0.00,,,0.02,meteohub,2013-04-22 12:57:00,
2013-04-22 09:02:00,73.2,48.4,29.91,East,90,11.0,11.0,34,0.00,,,0.02,meteohub,2013-04-22 13:02:00,
2013-04-22 09:07:00,73.2,48.9,29.91,NE,45,4.0,11.0,35,0.00,,,0.02,meteohub,2013-04-22 13:07:00,
2013-04-22 09:12:00,73.4,48.9,29.91,East,90,10.0,11.0,35,0.00,,,0.02,meteohub,2013-04-22 13:12:00,
2013-04-22 09:17:00,73.6,49.8,29.91,East,90,6.0,11.0,36,0.00,,,0.02,meteohub,2013-04-22 13:17:00,
2013-04-22 09:22:00,74.1,49.8,29.91,East,90,9.0,10.0,36,0.00,,,0.02,meteohub,2013-04-22 13:22:00,
2013-04-22 09:27:00,74.3,49.8,29.92,East,90,4.0,10.0,36,0.00,,,0.02,meteohub,2013-04-22 13:27:00,
2013-04-22 09:32:00,74.5,49.8,29.92,East,90,8.0,10.0,36,0.00,,,0.02,meteohub,2013-04-22 13:32:00,
2013-04-22 09:37:00,74.7,50.7,29.92,East,90,6.0,10.0,37,0.00,,,0.02,meteohub,2013-04-22 13:37:00,
2013-04-22 09:42:00,74.7,50.7,29.92,East,90,8.0,8.0,37,0.00,,,0.02,meteohub,2013-04-22 13:42:00,
2013-04-22 09:47:00,75.0,50.9,29.93,East,90,6.0,9.0,37,0.00,,,0.02,meteohub,2013-04-22 13:47:00,
2013-04-22 09:52:00,75.0,51.1,29.92,East,90,7.0,11.0,37,0.00,,,0.02,meteohub,2013-04-22 13:52:00,
2013-04-22 09:57:00,75.2,51.3,29.93,SE,135,6.0,11.0,37,0.00,,,0.02,meteohub,2013-04-22 13:57:00,
2013-04-22 10:02:00,75.6,50.0,29.92,East,90,7.0,11.0,35,0.00,,,0.02,meteohub,2013-04-22 14:02:00,
2013-04-22 10:07:00,75.9,49.1,29.93,East,90,8.0,9.0,34,0.00,,,0.02,meteohub,2013-04-22 14:07:00,
2013-04-22 10:12:00,76.3,49.3,29.93,East,90,7.0,8.0,34,0.00,,,0.02,meteohub,2013-04-22 14:12:00,
2013-04-22 10:17:00,76.1,50.2,29.93,SE,135,6.0,10.0,35,0.00,,,0.02,meteohub,2013-04-22 14:17:00,
2013-04-22 10:22:00,76.1,50.2,29.93,East,90,4.0,10.0,35,0.00,,,0.02,meteohub,2013-04-22 14:22:00,
2013-04-22 10:27:00,76.5,50.4,29.93,SE,135,3.0,10.0,35,0.00,,,0.02,meteohub,2013-04-22 14:27:00,
2013-04-22 10:32:00,76.8,50.5,29.94,NE,45,5.0,10.0,35,0.00,,,0.02,meteohub,2013-04-22 14:32:00,
2013-04-22 10:37:00,77.0,50.7,29.93,East,90,7.0,10.0,35,0.00,,,0.02,meteohub,2013-04-22 14:37:00,
2013-04-22 10:42:00,77.0,50.9,29.94,East,90,5.0,10.0,35,0.00,,,0.02,meteohub,2013-04-22 14:42:00,
2013-04-22 10:47:00,76.8,50.9,29.93,East,90,5.0,9.0,35,0.00,,,0.02,meteohub,2013-04-22 14:47:00,
2013-04-22 10:52:00,76.6,51.6,29.93,East,90,5.0,9.0,36,0.00,,,0.02,meteohub,2013-04-22 14:52:00,
2013-04-22 10:57:00,79.2,51.1,29.93,East,90,3.0,8.0,35,0.00,,,0.02,meteohub,2013-04-22 14:57:00,
2013-04-22 11:02:00,77.0,49.5,29.93,East,90,4.0,7.0,33,0.00,,,0.02,meteohub,2013-04-22 15:02:00,
2013-04-22 11:07:00,77.2,49.5,29.93,East,90,6.0,6.0,33,0.00,,,0.02,meteohub,2013-04-22 15:07:00,
2013-04-22 11:12:00,77.2,50.2,29.93,East,90,5.0,9.0,34,0.00,,,0.02,meteohub,2013-04-22 15:12:00,
2013-04-22 11:17:00,77.4,50.2,29.93,East,90,4.0,9.0,34,0.00,,,0.02,meteohub,2013-04-22 15:17:00,
2013-04-22 11:23:00,77.5,50.2,29.94,East,90,8.0,8.0,34,0.00,,,0.02,meteohub,2013-04-22 15:23:00,
2013-04-22 11:28:00,77.7,50.4,29.93,East,90,6.0,8.0,34,0.00,,,0.02,meteohub,2013-04-22 15:28:00,
2013-04-22 11:33:00,77.9,50.4,29.94,East,90,5.0,8.0,34,0.00,,,0.02,meteohub,2013-04-22 15:33:00,
2013-04-22 11:39:00,78.4,50.4,29.93,East,90,4.0,8.0,34,0.00,,,0.02,meteohub,2013-04-22 15:39:00,
2013-04-22 11:44:00,78.8,50.5,29.92,East,90,6.0,8.0,34,0.00,,,0.02,meteohub,2013-04-22 15:44:00,
2013-04-22 11:49:00,80.1,50.5,29.92,NE,45,5.0,8.0,34,0.00,,,0.02,meteohub,2013-04-22 15:49:00,
2013-04-22 11:54:00,80.4,50.5,29.92,SE,135,5.0,8.0,34,0.01,,,0.04,meteohub,2013-04-22 15:54:00,
2013-04-22 11:59:00,80.2,49.8,29.92,East,90,4.0,8.0,33,0.01,,,0.04,meteohub,2013-04-22 15:59:00,
2013-04-22 12:04:00,80.6,49.8,29.91,SE,135,4.0,8.0,33,0.01,,,0.04,meteohub,2013-04-22 16:04:00,
2013-04-22 12:09:00,81.1,49.8,29.91,East,90,3.0,8.0,33,0.01,,,0.04,meteohub,2013-04-22 16:09:00,
2013-04-22 12:14:00,81.1,50.5,29.91,East,90,6.0,8.0,34,0.01,,,0.04,meteohub,2013-04-22 16:14:00,
2013-04-22 12:19:00,81.7,50.7,29.91,South,180,2.0,8.0,34,0.01,,,0.04,meteohub,2013-04-22 16:19:00,
2013-04-22 12:25:00,82.0,50.9,29.91,East,90,4.0,8.0,34,0.01,,,0.04,meteohub,2013-04-22 16:25:00,
2013-04-22 12:30:00,83.3,50.2,29.91,South,180,3.0,8.0,33,0.01,,,0.04,meteohub,2013-04-22 16:30:00,
2013-04-22 12:35:00,83.8,50.4,29.91,East,90,6.0,6.0,33,0.01,,,0.04,meteohub,2013-04-22 16:35:00,
2013-04-22 12:40:00,82.8,50.4,29.90,South,180,8.0,8.0,33,0.01,,,0.04,meteohub,2013-04-22 16:40:00,
2013-04-22 12:46:00,83.5,50.5,29.89,South,180,2.0,8.0,33,0.01,,,0.04,meteohub,2013-04-22 16:46:00,
2013-04-22 12:51:00,83.8,50.7,29.89,SE,135,6.0,8.0,33,0.00,,,0.04,meteohub,2013-04-22 16:51:00,
2013-04-22 12:56:00,84.6,50.9,29.90,SE,135,4.0,10.0,33,0.00,,,0.04,meteohub,2013-04-22 16:56:00,
2013-04-22 13:01:00,84.4,50.9,29.89,South,180,3.0,10.0,33,0.00,,,0.04,meteohub,2013-04-22 17:01:00,
2013-04-22 13:06:00,86.4,51.6,29.89,East,90,5.0,10.0,34,0.00,,,0.04,meteohub,2013-04-22 17:06:00,
2013-04-22 13:11:00,84.9,51.8,29.89,South,180,4.0,8.0,34,0.00,,,0.04,meteohub,2013-04-22 17:11:00,
2013-04-22 13:16:00,84.0,50.2,29.88,SE,135,5.0,8.0,32,0.00,,,0.04,meteohub,2013-04-22 17:16:00,
2013-04-22 13:22:00,83.5,49.3,29.88,South,180,6.0,9.0,31,0.00,,,0.04,meteohub,2013-04-22 17:22:00,
2013-04-22 13:27:00,84.6,49.1,29.88,South,180,5.0,9.0,31,0.00,,,0.04,meteohub,2013-04-22 17:27:00,
2013-04-22 13:32:00,85.1,49.8,29.88,East,90,4.0,9.0,32,0.00,,,0.04,meteohub,2013-04-22 17:32:00,
2013-04-22 13:37:00,84.7,50.7,29.88,SW,225,2.0,6.0,33,0.00,,,0.04,meteohub,2013-04-22 17:37:00,
2013-04-22 13:42:00,85.5,50.5,29.87,South,180,3.0,10.0,33,0.00,,,0.04,meteohub,2013-04-22 17:42:00,
2013-04-22 13:47:00,87.3,49.8,29.87,South,180,4.0,10.0,32,0.00,,,0.04,meteohub,2013-04-22 17:47:00,
2013-04-22 13:52:00,87.1,48.6,29.87,East,90,4.0,6.0,31,0.00,,,0.04,meteohub,2013-04-22 17:52:00,
2013-04-22 13:57:00,86.4,48.4,29.86,South,180,2.0,4.0,31,0.00,,,0.04,meteohub,2013-04-22 17:57:00,
2013-04-22 14:02:00,85.3,49.1,29.87,SE,135,4.0,4.0,32,0.00,,,0.04,meteohub,2013-04-22 18:02:00,
2013-04-22 14:07:00,83.8,50.2,29.86,South,180,1.0,4.0,33,0.00,,,0.04,meteohub,2013-04-22 18:07:00,
2013-04-22 14:12:00,83.1,50.2,29.86,SW,225,4.0,5.0,33,0.00,,,0.04,meteohub,2013-04-22 18:12:00,
2013-04-22 14:17:00,83.5,50.2,29.86,SW,225,4.0,5.0,33,0.00,,,0.04,meteohub,2013-04-22 18:17:00,
2013-04-22 14:22:00,84.4,49.5,29.86,South,180,4.0,6.0,32,0.00,,,0.04,meteohub,2013-04-22 18:22:00,
2013-04-22 14:27:00,83.8,48.6,29.86,East,90,5.0,6.0,31,0.00,,,0.04,meteohub,2013-04-22 18:27:00,
2013-04-22 14:32:00,83.5,49.3,29.85,South,180,7.0,7.0,32,0.00,,,0.04,meteohub,2013-04-22 18:32:00,
2013-04-22 14:37:00,83.1,49.3,29.85,West,270,8.0,8.0,32,0.00,,,0.04,meteohub,2013-04-22 18:37:00,
2013-04-22 14:42:00,82.8,50.2,29.86,South,180,5.0,9.0,33,0.00,,,0.04,meteohub,2013-04-22 18:42:00,
2013-04-22 14:47:00,82.2,49.5,29.85,South,180,8.0,9.0,32,0.00,,,0.04,meteohub,2013-04-22 18:47:00,
2013-04-22 14:52:00,82.0,48.7,29.85,SW,225,4.0,8.0,31,0.00,,,0.04,meteohub,2013-04-22 18:52:00,
2013-04-22 14:57:00,82.0,49.5,29.85,South,180,3.0,8.0,32,0.00,,,0.04,meteohub,2013-04-22 18:57:00,
2013-04-22 15:02:00,82.6,49.5,29.84,South,180,6.0,8.0,32,0.00,,,0.04,meteohub,2013-04-22 19:02:00,
2013-04-22 15:07:00,82.8,49.6,29.84,WSW,248,7.0,8.0,32,0.00,,,0.04,meteohub,2013-04-22 19:07:00,
2013-04-22 15:12:00,82.2,49.5,29.84,SW,225,5.0,8.0,32,0.00,,,0.04,meteohub,2013-04-22 19:12:00,
2013-04-22 15:17:00,83.1,48.4,29.84,SW,225,7.0,8.0,31,0.00,,,0.04,meteohub,2013-04-22 19:17:00,
2013-04-22 15:22:00,85.5,48.2,29.83,SW,225,8.0,8.0,31,0.00,,,0.04,meteohub,2013-04-22 19:22:00,
2013-04-22 15:27:00,86.0,48.9,29.83,South,180,6.0,9.0,32,0.00,,,0.04,meteohub,2013-04-22 19:27:00,
2013-04-22 15:32:00,84.2,49.8,29.83,SW,225,4.0,9.0,33,0.00,,,0.04,meteohub,2013-04-22 19:32:00,
2013-04-22 15:37:00,84.2,50.0,29.83,SW,225,3.0,9.0,33,0.00,,,0.04,meteohub,2013-04-22 19:37:00,
2013-04-22 15:42:00,84.9,48.2,29.82,South,180,3.0,7.0,31,0.00,,,0.04,meteohub,2013-04-22 19:42:00,
2013-04-22 15:47:00,85.1,48.0,29.82,East,90,3.0,5.0,31,0.00,,,0.04,meteohub,2013-04-22 19:47:00,
2013-04-22 15:52:00,84.2,48.0,29.82,East,90,5.0,5.0,31,0.00,,,0.04,meteohub,2013-04-22 19:52:00,
2013-04-22 15:57:00,82.9,48.9,29.82,East,90,4.0,7.0,32,0.00,,,0.04,meteohub,2013-04-22 19:57:00,
2013-04-22 16:02:00,82.2,48.9,29.82,South,180,2.0,7.0,32,0.00,,,0.04,meteohub,2013-04-22 20:02:00,
2013-04-22 16:07:00,82.2,49.8,29.81,South,180,1.0,7.0,33,0.00,,,0.04,meteohub,2013-04-22 20:07:00,
2013-04-22 16:12:00,82.0,48.0,29.80,East,90,6.0,6.0,31,0.00,,,0.04,meteohub,2013-04-22 20:12:00,
2013-04-22 16:17:00,81.5,47.5,29.81,SW,225,3.0,6.0,31,0.00,,,0.04,meteohub,2013-04-22 20:17:00,
2013-04-22 16:22:00,81.5,47.3,29.81,South,180,2.0,6.0,31,0.00,,,0.04,meteohub,2013-04-22 20:22:00,
2013-04-22 16:27:00,81.5,48.0,29.81,South,180,2.0,6.0,32,0.00,,,0.04,meteohub,2013-04-22 20:27:00,
2013-04-22 16:32:00,81.7,48.2,29.81,South,180,4.0,5.0,32,0.00,,,0.04,meteohub,2013-04-22 20:32:00,
2013-04-22 16:37:00,81.5,48.9,29.81,SSW,203,2.0,5.0,33,0.00,,,0.04,meteohub,2013-04-22 20:37:00,
2013-04-22 16:43:00,81.7,48.2,29.81,SW,225,2.0,5.0,32,0.00,,,0.04,meteohub,2013-04-22 20:43:00,
2013-04-22 16:48:00,81.9,46.9,29.80,East,90,4.0,5.0,31,0.00,,,0.04,meteohub,2013-04-22 20:48:00,
2013-04-22 16:53:00,82.4,47.3,29.81,South,180,0.0,6.0,32,0.00,,,0.04,meteohub,2013-04-22 20:53:00,
2013-04-22 16:58:00,82.6,47.3,29.81,East,90,2.0,6.0,32,0.00,,,0.04,meteohub,2013-04-22 20:58:00,
2013-04-22 17:03:00,82.0,48.2,29.82,East,90,3.0,6.0,33,0.00,,,0.04,meteohub,2013-04-22 21:03:00,
2013-04-22 17:08:00,81.1,48.4,29.82,East,90,7.0,7.0,33,0.00,,,0.04,meteohub,2013-04-22 21:08:00,
2013-04-22 17:13:00,80.2,47.5,29.81,East,90,7.0,7.0,32,0.00,,,0.04,meteohub,2013-04-22 21:13:00,
2013-04-22 17:18:00,79.9,47.3,29.81,East,90,6.0,7.0,32,0.00,,,0.04,meteohub,2013-04-22 21:18:00,
2013-04-22 17:23:00,79.7,47.1,29.82,East,90,4.0,8.0,32,0.00,,,0.04,meteohub,2013-04-22 21:23:00,
2013-04-22 17:28:00,79.3,47.8,29.81,East,90,6.0,8.0,33,0.00,,,0.04,meteohub,2013-04-22 21:28:00,
2013-04-22 17:33:00,79.2,47.8,29.81,SE,135,2.0,8.0,33,0.00,,,0.04,meteohub,2013-04-22 21:33:00,
2013-04-22 17:39:00,79.2,49.6,29.82,NW,315,4.0,8.0,35,0.00,,,0.04,meteohub,2013-04-22 21:39:00,
2013-04-22 17:44:00,75.9,48.9,29.84,NW,315,7.0,8.0,34,0.00,,,0.04,meteohub,2013-04-22 21:44:00,
2013-04-22 17:49:00,73.0,48.4,29.84,NW,315,2.0,8.0,33,0.11,,,0.14,meteohub,2013-04-22 21:49:00,
2013-04-22 17:54:00,71.8,47.5,29.83,South,180,3.0,8.0,32,0.30,,,0.33,meteohub,2013-04-22 21:54:00,
2013-04-22 17:59:00,71.1,48.4,29.83,SW,225,1.0,8.0,33,0.37,,,0.40,meteohub,2013-04-22 21:59:00,
2013-04-22 18:04:00,70.9,48.6,29.83,West,270,1.0,8.0,33,0.38,,,0.41,meteohub,2013-04-22 22:04:00,
2013-04-22 18:09:00,70.9,48.9,29.84,West,270,1.0,4.0,33,0.38,,,0.41,meteohub,2013-04-22 22:09:00,
2013-04-22 18:14:00,70.9,48.0,29.85,West,270,1.0,2.0,32,0.39,,,0.43,meteohub,2013-04-22 22:14:00,
2013-04-22 18:19:00,70.9,46.9,29.85,West,270,2.0,2.0,31,0.39,,,0.43,meteohub,2013-04-22 22:19:00,
2013-04-22 18:24:00,71.1,47.7,29.86,NW,315,4.0,4.0,32,0.39,,,0.43,meteohub,2013-04-22 22:24:00,
2013-04-22 18:30:00,70.7,47.7,29.86,West,270,2.0,5.0,32,0.39,,,0.43,meteohub,2013-04-22 22:30:00,
2013-04-22 18:35:00,70.7,48.9,29.86,North,0,3.0,5.0,33,0.39,,,0.43,meteohub,2013-04-22 22:35:00,
2013-04-22 18:40:00,70.5,48.9,29.86,North,0,15.0,15.0,33,0.39,,,0.43,meteohub,2013-04-22 22:40:00,
2013-04-22 18:45:00,69.6,49.1,29.86,NW,315,6.0,6.0,33,0.39,,,0.43,meteohub,2013-04-22 22:45:00,
2013-04-22 18:50:00,69.4,47.3,29.86,NW,315,4.0,15.0,31,0.19,,,0.43,meteohub,2013-04-22 22:50:00,
2013-04-22 18:55:00,69.3,46.9,29.86,NW,315,4.0,15.0,31,0.06,,,0.45,meteohub,2013-04-22 22:55:00,
2013-04-22 19:00:00,69.4,48.0,29.86,North,0,2.0,8.0,32,0.05,,,0.45,meteohub,2013-04-22 23:00:00,
2013-04-22 19:05:00,69.6,48.0,29.86,North,0,7.0,11.0,32,0.02,,,0.45,meteohub,2013-04-22 23:05:00,
2013-04-22 19:10:00,69.3,48.2,29.87,NW,315,3.0,11.0,32,0.02,,,0.45,meteohub,2013-04-22 23:10:00,
2013-04-22 19:15:00,69.3,49.1,29.87,North,0,4.0,11.0,33,0.02,,,0.45,meteohub,2013-04-22 23:15:00,
2013-04-22 19:20:00,69.1,47.3,29.88,North,0,4.0,10.0,31,0.04,,,0.46,meteohub,2013-04-22 23:20:00,
2013-04-22 19:26:00,69.1,46.9,29.88,North,0,4.0,6.0,31,0.05,,,0.47,meteohub,2013-04-22 23:26:00,
2013-04-22 19:31:00,68.9,46.9,29.87,North,0,1.0,8.0,31,0.05,,,0.47,meteohub,2013-04-22 23:31:00,
2013-04-22 19:36:00,68.9,47.8,29.86,North,0,1.0,8.0,32,0.06,,,0.48,meteohub,2013-04-22 23:36:00,
2013-04-22 19:41:00,68.9,48.0,29.87,North,0,2.0,6.0,32,0.07,,,0.50,meteohub,2013-04-22 23:41:00,
2013-04-22 19:46:00,68.7,48.9,29.89,West,270,2.0,3.0,33,0.07,,,0.50,meteohub,2013-04-22 23:46:00,
2013-04-22 19:51:00,68.7,48.9,29.89,North,0,2.0,4.0,33,0.07,,,0.51,meteohub,2013-04-22 23:51:00,
2013-04-22 19:56:00,68.5,48.0,29.89,NW,315,2.0,4.0,32,0.07,,,0.52,meteohub,2013-04-22 23:56:00,
2013-04-22 20:01:00,68.5,48.0,29.89,West,270,0.0,4.0,32,0.07,,,0.52,meteohub,2013-04-23 00:01:00,
2013-04-22 20:06:00,68.5,47.8,29.88,North,0,1.0,4.0,32,0.08,,,0.01,meteohub,2013-04-23 00:06:00,
2013-04-22 20:11:00,68.5,48.9,29.88,North,0,1.0,2.0,33,0.08,,,0.01,meteohub,2013-04-23 00:11:00,
2013-04-22 20:16:00,68.7,48.9,29.89,SW,225,2.0,2.0,33,0.08,,,0.01,meteohub,2013-04-23 00:16:00,
2013-04-22 20:22:00,68.7,48.9,29.89,SW,225,1.0,2.0,33,0.07,,,0.01,meteohub,2013-04-23 00:22:00,
2013-04-22 20:27:00,68.9,50.0,29.88,NW,315,1.0,2.0,34,0.06,,,0.01,meteohub,2013-04-23 00:27:00,
2013-04-22 20:32:00,69.1,49.3,29.88,North,0,1.0,2.0,33,0.07,,,0.02,meteohub,2013-04-23 00:32:00,
2013-04-22 20:37:00,69.1,48.4,29.88,North,0,2.0,2.0,32,0.06,,,0.02,meteohub,2013-04-23 00:37:00,
2013-04-22 20:42:00,69.3,48.2,29.88,NW,315,1.0,2.0,32,0.05,,,0.02,meteohub,2013-04-23 00:42:00,
2013-04-22 20:47:00,69.3,48.2,29.89,NW,315,2.0,2.0,32,0.05,,,0.02,meteohub,2013-04-23 00:47:00,
2013-04-22 20:52:00,69.3,48.9,29.88,North,0,1.0,2.0,33,0.04,,,0.04,meteohub,2013-04-23 00:52:00,
2013-04-22 20:57:00,69.3,49.1,29.88,West,270,0.0,2.0,33,0.05,,,0.05,meteohub,2013-04-23 00:57:00,
2013-04-22 21:02:00,69.3,49.3,29.88,SE,135,0.0,2.0,33,0.05,,,0.05,meteohub,2013-04-23 01:02:00,
2013-04-22 21:07:00,69.3,49.3,29.88,SE,135,0.0,2.0,33,0.04,,,0.05,meteohub,2013-04-23 01:07:00,
2013-04-22 21:12:00,69.3,50.2,29.88,SE,135,1.0,1.0,34,0.04,,,0.05,meteohub,2013-04-23 01:12:00,
2013-04-22 21:17:00,69.3,49.5,29.89,SE,135,0.0,1.0,33,0.04,,,0.05,meteohub,2013-04-23 01:17:00,
2013-04-22 21:22:00,69.3,47.7,29.89,SE,135,2.0,2.0,31,0.04,,,0.05,meteohub,2013-04-23 01:22:00,
2013-04-22 21:27:00,69.4,48.4,29.89,East,90,2.0,2.0,32,0.04,,,0.05,meteohub,2013-04-23 01:27:00,
2013-04-22 21:32:00,69.4,48.4,29.90,East,90,0.0,2.0,32,0.02,,,0.05,meteohub,2013-04-23 01:32:00,
2013-04-22 21:37:00,69.4,49.1,29.90,SE,135,1.0,2.0,33,0.02,,,0.05,meteohub,2013-04-23 01:37:00,
2013-04-22 21:42:00,69.4,49.3,29.89,South,180,0.0,2.0,33,0.02,,,0.05,meteohub,2013-04-23 01:42:00,
2013-04-22 21:47:00,69.4,49.3,29.90,South,180,0.0,1.0,33,0.01,,,0.05,meteohub,2013-04-23 01:47:00,
2013-04-22 21:52:00,69.3,49.5,29.90,South,180,0.0,1.0,33,0.01,,,0.05,meteohub,2013-04-23 01:52:00,
2013-04-22 21:57:00,69.3,49.5,29.90,South,180,0.0,1.0,33,0.00,,,0.05,meteohub,2013-04-23 01:57:00,
2013-04-22 22:02:00,69.3,50.4,29.91,South,180,0.0,0.0,34,0.00,,,0.05,meteohub,2013-04-23 02:02:00,
2013-04-22 22:07:00,69.3,48.7,29.91,West,270,1.0,0.0,32,0.00,,,0.05,meteohub,2013-04-23 02:07:00,
2013-04-22 22:12:00,69.3,47.8,29.91,West,270,0.0,1.0,31,0.00,,,0.05,meteohub,2013-04-23 02:12:00,
2013-04-22 22:17:00,69.3,48.6,29.90,West,270,0.0,1.0,32,0.00,,,0.05,meteohub,2013-04-23 02:17:00,
2013-04-22 22:22:00,69.3,48.6,29.90,West,270,1.0,1.0,32,0.00,,,0.05,meteohub,2013-04-23 02:22:00,
2013-04-22 22:27:00,69.3,49.3,29.91,West,270,0.0,1.0,33,0.00,,,0.05,meteohub,2013-04-23 02:27:00,
2013-04-22 22:32:00,69.1,49.5,29.91,West,270,0.0,1.0,33,0.00,,,0.05,meteohub,2013-04-23 02:32:00,
2013-04-22 22:37:00,69.1,49.6,29.91,West,270,0.0,1.0,33,0.00,,,0.05,meteohub,2013-04-23 02:37:00,
2013-04-22 22:42:00,68.9,49.6,29.91,West,270,0.0,0.0,33,0.00,,,0.05,meteohub,2013-04-23 02:42:00,
2013-04-22 22:47:00,68.9,49.8,29.91,West,270,0.0,1.0,33,0.00,,,0.05,meteohub,2013-04-23 02:47:00,
2013-04-22 22:52:00,68.9,50.5,29.91,West,270,0.0,1.0,34,0.00,,,0.05,meteohub,2013-04-23 02:52:00,
2013-04-22 22:57:00,68.9,49.8,29.91,West,270,0.0,1.0,33,0.00,,,0.05,meteohub,2013-04-23 02:57:00,
2013-04-22 23:02:00,68.9,48.7,29.91,West,270,0.0,1.0,32,0.00,,,0.05,meteohub,2013-04-23 03:02:00,
2013-04-22 23:07:00,69.1,47.7,29.91,West,270,0.0,1.0,31,0.00,,,0.05,meteohub,2013-04-23 03:07:00,
2013-04-22 23:12:00,68.9,48.6,29.91,West,270,0.0,1.0,32,0.00,,,0.05,meteohub,2013-04-23 03:12:00,
2013-04-22 23:17:00,69.1,48.6,29.91,West,270,0.0,1.0,32,0.00,,,0.05,meteohub,2013-04-23 03:17:00,
2013-04-22 23:22:00,68.9,48.6,29.90,NW,315,1.0,1.0,32,0.00,,,0.05,meteohub,2013-04-23 03:22:00,
2013-04-22 23:27:00,68.9,48.6,29.91,NW,315,1.0,2.0,32,0.00,,,0.05,meteohub,2013-04-23 03:27:00,
2013-04-22 23:32:00,68.9,49.5,29.90,North,0,1.0,2.0,33,0.00,,,0.05,meteohub,2013-04-23 03:32:00,
2013-04-22 23:37:00,69.1,49.5,29.91,NW,315,2.0,2.0,33,0.00,,,0.05,meteohub,2013-04-23 03:37:00,
2013-04-22 23:42:00,69.1,49.5,29.91,North,0,2.0,2.0,33,0.00,,,0.05,meteohub,2013-04-23 03:42:00,
2013-04-22 23:47:00,68.9,49.5,29.91,North,0,2.0,2.0,33,0.00,,,0.05,meteohub,2013-04-23 03:47:00,
2013-04-22 23:52:00,69.1,49.5,29.90,North,0,2.0,2.0,33,0.00,,,0.05,meteohub,2013-04-23 03:52:00,
2013-04-22 23:57:00,69.1,49.6,29.90,North,0,2.0,2.0,33,0.00,,,0.05,meteohub,2013-04-23 03:57:00,